Weather History for Yakima, WA

Change the Weather History Date:

Friday, May 9, 2014

  Actual Average Record
Temperature  
Mean Temperature 53 °F 55 °F  
Max Temperature 64 °F 71 °F 95 °F (1949)
Min Temperature 42 °F 40 °F 27 °F (1999)
Degree Days  
Heating Degree Days 12 10  
Month to date heating degree days 61 101  
Since 1 July heating degree days 5478 5783  
Cooling Degree Days 0 0  
Month to date cooling degree days 0 0  
Year to date cooling degree days 0 1  
Growing Degree Days 3 (Base 50)    
Moisture  
Dew Point 37 °F    
Average Humidity 62    
Maximum Humidity 93    
Minimum Humidity 31    
Precipitation  
Precipitation T in 0.02 in 0.67 in (1957)
Month to date precipitation 0.12 0.16  
Year to date precipitation 2.91 3.25  
Snow  
Snow 0.00 in 0.00 in 0.00 in (2002)
Month to date snowfall 0.0 0.0  
Year to date snowfall 19.9 8.6  
Since 1 July snowfall 19.9 21.6  
Snow Depth 0.00 in    
Sea Level Pressure  
Sea Level Pressure 29.83 in    
Wind  
Wind Speed 6 mph (WNW)    
Max Wind Speed 20 mph    
Max Gust Speed 26 mph    
Visibility 10 miles    
Events Rain    
T = Trace of Precipitation, MM = Missing Value Source: NWS Daily Summary

Daily Weather History Graph

Daily Weather History Graph

Search for Another Location

Airport:

Trip Planner

Search our weather history database for the weather conditions in past years. The results will help you decide how hot, cold, wet, or windy it might be!

Date:

Astronomy

May. 09, 2014 Rise Set
Actual Time 5:35 AM PDT 8:22 PM PDT
Civil Twilight 5:01 AM PDT 8:57 PM PDT
Nautical Twilight 4:17 AM PDT 9:41 PM PDT
Astronomical Twilight 3:25 AM PDT 10:33 PM PDT
Moon 3:06 PM PDT (5/9) 3:00 AM PDT (5/9)
Length of Visible Light 15h 55m
Length of Day
14h 46m
Waxing Gibbous, 74% of the Moon is Illuminated
May 9
Waxing Gibbous
May 14
Full
May 21
Last Quarter
May 28
New
Jun 5
First Quarter

Hourly Weather History & Observations

Time (PDT) Temp. Windchill Dew Point Humidity Pressure Visibility Wind Dir Wind Speed Gust Speed Precip Events Conditions
12:53 AM 54.0 °F - 52.0 °F 93% 29.68 in 9.0 mi Calm Calm - 0.00 in Rain Light Rain
1:53 AM 53.6 °F - 46.4 °F 77% 29.70 in 10.0 mi West 4.6 mph - N/A   Scattered Clouds
2:53 AM 48.9 °F - 39.9 °F 71% 29.72 in 10.0 mi Calm Calm - N/A   Clear
3:53 AM 46.9 °F - 41.0 °F 80% 29.75 in 10.0 mi NNE 3.5 mph - N/A   Clear
4:53 AM 46.4 °F - 39.2 °F 76% 29.76 in 10.0 mi Calm Calm - N/A   Clear
5:53 AM 43.0 °F 41.3 °F 39.9 °F 89% 29.78 in 10.0 mi North 3.5 mph - N/A   Scattered Clouds
6:53 AM 50.0 °F - 43.0 °F 77% 29.80 in 10.0 mi North 5.8 mph - N/A   Scattered Clouds
7:53 AM 53.1 °F - 42.1 °F 66% 29.82 in 10.0 mi Calm Calm - N/A   Clear
8:53 AM 57.0 °F - 41.0 °F 55% 29.82 in 10.0 mi Calm Calm - N/A   Partly Cloudy
9:53 AM 60.1 °F - 37.0 °F 42% 29.83 in 10.0 mi WNW 8.1 mph - N/A   Mostly Cloudy
10:53 AM 60.1 °F - 35.1 °F 39% 29.83 in 10.0 mi North - - N/A   Mostly Cloudy
11:53 AM 62.1 °F - 34.0 °F 35% 29.83 in 10.0 mi West 10.4 mph - N/A   Partly Cloudy
12:53 PM 64.0 °F - 33.1 °F 31% 29.83 in 10.0 mi NNW 4.6 mph - N/A   Mostly Cloudy
1:53 PM 61.0 °F - 33.1 °F 35% 29.84 in 10.0 mi WSW 6.9 mph 17.3 mph N/A   Mostly Cloudy
2:53 PM 62.1 °F - 36.0 °F 38% 29.86 in 10.0 mi WNW 8.1 mph - 0.00 in   Mostly Cloudy
3:53 PM 61.0 °F - 32.0 °F 34% 29.86 in 10.0 mi WNW 13.8 mph - N/A   Mostly Cloudy
4:53 PM 59.0 °F - 30.9 °F 35% 29.86 in 10.0 mi WNW 18.4 mph - N/A   Mostly Cloudy
5:53 PM 59.0 °F - 30.9 °F 35% 29.87 in 10.0 mi West 12.7 mph - N/A   Mostly Cloudy
6:53 PM 57.0 °F - 30.9 °F 37% 29.88 in 10.0 mi West 16.1 mph 21.9 mph N/A   Mostly Cloudy
7:53 PM 55.0 °F - 35.1 °F 47% 29.89 in 10.0 mi SSW 6.9 mph - N/A   Mostly Cloudy
8:53 PM 53.1 °F - 35.1 °F 50% 29.89 in 10.0 mi WSW 8.1 mph - N/A   Mostly Cloudy
9:53 PM 51.1 °F - 35.1 °F 54% 29.91 in 10.0 mi West 8.1 mph - N/A   Clear
10:53 PM 48.9 °F - 36.0 °F 61% 29.92 in 10.0 mi Calm Calm - N/A   Mostly Cloudy
11:53 PM 46.9 °F - 36.0 °F 66% 29.93 in 10.0 mi Calm Calm - N/A   Scattered Clouds